Regional Weather Roundup
Issued by NWS

Home | Current Version | Previous Version | Graphics & Text | Print | Product List | Glossary On
Versions: 1 2 3 4 5 6 7 8 9 10 11 12 13 14 15 16 17 18 19 20 21 22 23 24 25 26 27 28 29 30 31 32 33 34 35 36 37 38 39 40 41 42 43 44 45 46 47 48 49 50
000
ASUS43 KFSD 251310
RWRSD

WEATHER ROUNDUP FOR SOUTH DAKOTA
NATIONAL WEATHER SERVICE SIOUX FALLS SD
800 AM CDT THU AUG 25 2016

NOTE: "FAIR" INDICATES FEW OR NO CLOUDS BELOW 12,000 FEET WITH NO
SIGNIFICANT WEATHER AND/OR OBSTRUCTIONS TO VISIBILITY.


SDZ001>005-009-010-012>017-251400-
NORTHWEST AND NORTH CENTRAL SOUTH DAKOTA

CITY           SKY/WX    TMP DP  RH WIND       PRES   REMARKS
BUFFALO          N/A     47  45  93 W13       30.19R
FAITH            N/A     48  45  89 NW12      30.22R
MOBRIDGE       SUNNY     55  47  74 W13       30.14R
$$

SDZ012>016-024>037-041>051-057-063-072>074-251400-
SOUTHWEST AND SOUTH CENTRAL SOUTH DAKOTA

CITY           SKY/WX    TMP DP  RH WIND       PRES   REMARKS
RAPID CTY ARPT LGT RAIN  53  43  68 NW7       30.27R
PIERRE         SUNNY     55  49  80 W10       30.19R
CUSTER         MOCLDY    47  40  76 N3        30.30F
ELLSWORTH AFB  MOCLDY    53  44  73 W3        30.27R
PHILIP         CLOUDY    53  47  79 W3        30.23S
PINE RIDGE     LGT RAIN  52  48  86 CALM      30.28R
WINNER         FAIR      54  47  77 W10       30.21R
$$

SDZ004>011-016>023-039-040-251400-
NORTHEAST SOUTH DAKOTA

CITY           SKY/WX    TMP DP  RH WIND       PRES   REMARKS
ABERDEEN       SUNNY     51  47  86 SW7       30.11S
WATERTOWN      SUNNY     55  50  83 W10       30.11R
BROOKINGS      MOSUNNY   54  50  86 NW7       30.12R
SISSETON         N/A     59  51  75 NW10      30.05S
$$

SDZ017-020-022-023-036>040-048>070-251400-
SOUTHEAST SOUTH DAKOTA

CITY           SKY/WX    TMP DP  RH WIND       PRES   REMARKS
SIOUX FALLS    CLOUDY    59  54  83 NW6       30.12R
HURON          SUNNY     54  49  83 NW10      30.14S
CHAMBERLAIN    MOSUNNY   56  51  82 NW7       30.19R
MITCHELL       CLOUDY    54  51  90 NW7       30.15S
YANKTON        CLOUDY    57  52  82 NW10      30.13R
$$

ABBREVIATIONS USED IN REMARKS
   TC - TEMPERATURE IN CELSIUS
  WCI - WIND CHILL INDEX
   HX - HEAT INDEX
  VSB - VISIBILITY





USA.gov is the U.S. government's official web portal to all federal, state and local government web resources and services.